GW6774 Weather Reports


time (UTC)temp
C
wind
direction
speed
KPH
gust
KPH
rain 1hr
cm
rain 24hr
cm
rain mn
cm
humidity
%
barometer
mb
20260507202630 23 255 1.6 9.7 0.00 1.75 1.70 74 1010.8
20260507202130 22 309 3.2 9.7 0.00 1.75 1.70 77 1010.9
20260507201630 22 285 3.2 14.5 0.00 1.75 1.70 76 1010.9
20260507201130 22 292 4.8 14.5 0.00 1.75 1.70 75 1011.0
20260507200942 21 285 4.8 8.0 0.00 1.75 1.70 76 1010.9
20260507200130 22 258 4.8 8.0 0.00 1.75 1.70 75 1010.8
20260507195629 23 279 1.6 8.0 0.00 1.75 1.70 76 1010.9
20260507195131 22 299 3.2 8.0 0.00 1.75 1.70 77 1011.0
20260507194629 21 316 3.2 6.4 0.00 1.75 1.70 79 1011.0
20260507194131 21 173 1.6 8.0 0.00 1.75 1.70 79 1011.0
20260507193630 21 324 1.6 8.0 0.00 1.75 1.70 79 1011.2
20260507193129 21 278 3.2 9.7 0.00 1.75 1.70 80 1011.2
20260507192633 21 314 3.2 11.3 0.00 1.75 1.70 79 1011.1
20260507192130 22 340 3.2 11.3 0.00 1.75 1.70 80 1011.0
20260507191620 22 305 1.6 9.7 0.00 1.75 1.70 82 1010.9
20260507191434 21 237 1.6 17.7 0.00 1.75 1.70 80 1011.0
20260507190618 21 330 4.8 17.7 0.00 1.75 1.70 81 1010.9
20260507190422 21 300 3.2 11.3 0.00 1.75 1.70 83 1011.0
20260507185618 21 319 4.8 17.7 0.00 1.75 1.70 80 1010.9
20260507185118 22 340 4.8 17.7 0.00 1.75 1.70 79 1010.9
20260507184905 22 274 3.2 4.8 0.00 1.75 1.70 79 1010.8
20260507184118 22 261 0.0 4.8 0.00 1.75 1.70 79 1010.7
20260507183621 22 235 0.0 6.4 0.00 1.75 1.70 79 1010.7
20260507183117 22 279 1.6 6.4 0.00 1.75 1.70 81 1010.6
20260507182616 22 245 3.2 6.4 0.00 1.75 1.70 80 1010.8
20260507182116 22 285 1.6 6.4 0.00 1.75 1.70 78 1010.8
20260507181935 22 283 3.2 6.4 0.00 1.75 1.70 78 1010.8
20260507181118 22 266 1.6 6.4 0.00 1.75 1.70 77 1010.9
20260507180619 22 292 1.6 6.4 0.00 1.75 1.70 76 1010.9
20260507180414 23 295 3.2 8.0 0.00 1.75 1.70 74 1010.9
20260507175616 23 261 3.2 8.0 0.00 1.75 1.70 79 1010.7
20260507175120 23 324 3.2 6.4 0.00 1.75 1.70 77 1010.7
20260507174616 23 306 1.6 4.8 0.00 1.75 1.70 77 1010.7
20260507174117 22 261 1.6 3.2 0.00 1.75 1.70 81 1010.8
20260507173623 22 285 1.6 4.8 0.00 1.75 1.70 82 1010.9
20260507173119 22 320 3.2 4.8 0.00 1.75 1.70 82 1011.0
20260507172617 22 288 1.6 6.4 0.00 1.75 1.70 84 1010.9
20260507172118 22 257 0.0 6.4 0.00 1.75 1.70 84 1010.9
20260507171618 22 276 1.6 3.2 0.00 1.75 1.70 83 1011.0
20260507171118 23 254 0.0 4.8 0.00 1.75 1.70 84 1011.1
20260507170619 22 310 1.6 4.8 0.00 1.75 1.70 81 1011.0
20260507170119 22 0 3.2 4.8 0.00 1.75 1.70 83 1011.2
20260507165618 22 73 1.6 4.8 0.00 1.75 1.70 85 1011.1
20260507165118 22 286 1.6 4.8 0.00 1.75 1.70 84 1011.1
20260507164617 22 300 0.0 4.8 0.00 1.75 1.70 88 1010.9
20260507164119 21 281 1.6 4.8 0.00 1.75 1.70 88 1011.1
20260507163618 21 279 1.6 3.2 0.00 1.75 1.70 86 1011.2
20260507163118 21 257 0.0 3.2 0.00 1.75 1.70 86 1011.2
20260507162617 21 261 1.6 3.2 0.00 1.75 1.70 88 1011.2
20260507162117 21 295 1.6 3.2 0.00 1.75 1.70 89 1011.3
20260507161617 21 345 0.0 4.8 0.00 1.75 1.70 89 1011.4
20260507161117 21 275 1.6 6.4 0.00 1.75 1.70 90 1011.3
20260507160619 21 3 0.0 6.4 0.00 1.75 1.70 91 1011.1
20260507160117 21 298 1.6 4.8 0.00 1.75 1.70 93 1011.2
20260507155620 21 317 3.2 4.8 0.00 1.75 1.70 91 1010.8
20260507155118 20 344 1.6 4.8 0.00 1.75 1.70 90 1010.7
20260507154618 20 305 0.0 3.2 0.03 1.75 1.70 92 1010.6
20260507154117 20 303 1.6 3.2 0.03 1.75 1.70 92 1010.5
20260507153618 20 3 1.6 3.2 0.03 1.75 1.70 93 1010.6
20260507153117 20 0 1.6 3.2 0.03 1.75 1.70 93 1010.6
20260507152618 19 93 0.0 1.6 0.03 1.75 1.70 93 1010.7
20260507152119 19 13 0.0 3.2 0.05 1.75 1.70 93 1010.7
20260507151618 19 334 1.6 3.2 0.05 1.75 1.70 93 1010.7
20260507151411 19 341 0.0 3.2 0.05 1.75 1.70 94 1010.7
20260507150910 20 16 0.0 3.2 0.05 1.75 1.70 95 1010.8
20260507150435 19 0 1.6 3.2 0.08 1.75 1.70 95 1010.8
20260507145617 18 327 1.6 3.2 0.10 1.68 1.70 94 1010.8
20260507145119 18 300 0.0 3.2 0.13 1.68 1.70 94 1010.9
20260507144617 18 299 1.6 4.8 0.10 1.68 1.68 94 1011.2
20260507144117 18 44 0.0 4.8 0.10 1.68 1.68 94 1010.9
20260507143618 18 272 1.6 4.8 0.10 1.68 1.68 94 1010.8
20260507143118 18 262 0.0 3.2 0.10 1.68 1.68 95 1010.7
20260507142912 18 10 0.0 1.6 0.10 1.68 1.68 95 1010.6
20260507142119 18 59 0.0 1.6 0.10 1.68 1.65 95 1010.7
20260507141920 18 56 0.0 3.2 0.10 1.68 1.65 95 1010.6
20260507141118 18 76 1.6 3.2 0.10 1.68 1.65 95 1010.7
20260507140616 18 336 1.6 3.2 0.13 1.68 1.65 95 1010.8
20260507140247 18 331 0.0 3.2 0.08 1.57 1.57 95 1010.4
20260507140216 18 295 1.6 1.6 0.10 1.68 1.63 95 1010.8
20260507135105 18 51 0.0 3.2 0.05 1.57 1.57 95 1010.1
20260507134607 18 44 0.0 6.4 0.05 1.57 1.57 95 1010.0
20260507134107 18 47 0.0 6.4 0.05 1.57 1.57 95 1010.2
20260507133913 18 92 0.0 8.0 0.18 1.57 1.57 94 1010.1
20260507133419 18 56 1.6 9.7 0.18 1.57 1.57 94 1010.2
20260507132603 18 63 1.6 9.7 0.18 1.57 1.55 94 1010.2
20260507132103 18 354 3.2 9.7 0.15 1.57 1.55 94 1010.0
20260507131601 18 0 4.8 22.5 0.15 1.57 1.55 95 1010.1
20260507131101 19 299 6.4 22.5 0.15 1.57 1.55 95 1010.2
20260507130604 20 4 6.4 19.3 0.13 1.57 1.52 95 1010.0
20260507130101 20 245 0.0 3.2 0.13 1.57 1.52 95 1009.7
20260507125854 20 243 0.0 3.2 0.13 1.45 1.52 95 1009.6
20260507125102 20 262 0.0 3.2 0.13 1.45 1.52 95 1009.6
20260507124851 20 252 0.0 3.2 0.15 1.45 1.52 95 1009.4
20260507124052 20 180 1.6 3.2 0.15 1.45 1.52 95 1009.4
20260507123552 20 264 0.0 3.2 0.03 1.45 1.40 95 1009.5
20260507123047 20 264 0.0 3.2 0.03 1.45 1.40 95 1009.5
20260507122541 19 264 0.0 3.2 0.03 1.45 1.40 95 1009.2
20260507122043 19 264 0.0 3.2 0.03 1.45 1.40 95 1009.2
20260507121543 19 183 0.0 3.2 0.05 1.45 1.40 95 1008.9
20260507121042 19 326 0.0 3.2 0.05 1.45 1.40 95 1008.8
20260507120536 19 0 0.0 3.2 0.05 1.45 1.40 95 1008.8
20260507120403 19 178 0.0 3.2 0.05 1.45 1.40 95 1008.6
20260507115824 19 200 0.0 3.2 0.05 1.40 1.40 95 1008.9
20260507115032 19 140 0.0 3.2 0.05 1.40 1.40 95 1008.9
20260507114531 19 145 0.0 3.2 0.03 1.40 1.37 95 1008.6
20260507114029 19 113 1.6 3.2 0.03 1.40 1.37 95 1008.6
20260507113648 19 288 0.0 6.4 0.03 1.40 1.37 95 1008.7
20260507113626 19 358 0.0 4.8 0.03 1.40 1.37 95 1008.6
20260507112530 19 89 1.6 6.4 0.03 1.40 1.37 95 1008.7
20260507112031 19 111 1.6 6.4 0.03 1.40 1.37 95 1008.6
20260507111529 19 223 0.0 4.8 0.00 1.40 1.35 95 1008.4
20260507111324 19 266 1.6 4.8 0.00 1.40 1.35 95 1008.3
20260507110844 19 175 1.6 3.2 0.00 1.40 1.35 95 1008.1
20260507110030 19 159 0.0 6.4 0.00 1.40 1.35 95 1008.4
20260507105529 19 224 1.6 6.4 0.00 1.40 1.35 95 1008.3
20260507105030 19 230 1.6 4.8 0.00 1.40 1.35 95 1008.6
20260507104530 19 195 1.6 3.2 0.03 1.40 1.35 95 1008.5
20260507104031 19 223 0.0 3.2 0.05 1.40 1.35 95 1008.5
20260507103526 19 341 1.6 3.2 0.05 1.40 1.35 95 1008.5
20260507103027 19 299 1.6 4.8 0.05 1.40 1.35 95 1008.5
20260507102524 19 148 3.2 4.8 0.05 1.40 1.35 95 1008.8
20260507102017 19 261 1.6 4.8 0.05 1.40 1.35 95 1009.0
20260507101520 19 266 3.2 6.4 0.23 1.40 1.35 95 1009.2
20260507101017 19 283 3.2 6.4 0.41 1.40 1.35 95 1009.2
20260507100517 19 86 1.6 4.8 0.43 1.40 1.35 95 1008.7
20260507100018 19 330 1.6 4.8 0.48 1.40 1.35 95 1009.0
20260507095518 19 293 0.0 4.8 0.53 0.91 1.35 95 1008.8
20260507095017 19 93 1.6 4.8 0.74 0.91 1.35 95 1008.7
20260507094518 19 248 3.2 4.8 0.94 0.91 1.32 95 1007.8
20260507094017 19 125 0.0 0.0 0.91 0.91 1.30 95 1009.3
20260507093517 19 56 0.0 0.0 0.91 0.91 1.30 95 1010.0
20260507093030 19 56 0.0 0.0 0.91 0.91 1.30 95 1009.4
20260507092806 19 56 0.0 1.6 0.91 0.91 1.30 95 1010.0
20260507092013 19 56 0.0 1.6 0.91 0.91 1.30 95 1009.4
20260507091510 19 79 1.6 1.6 0.74 0.91 1.09 95 1009.6
20260507091010 19 1 0.0 0.0 0.56 0.91 0.94 95 1010.4
20260507090510 19 1 0.0 0.0 0.56 0.91 0.89 95 1010.4
20260507090009 19 1 0.0 0.0 0.51 0.91 0.86 95 1010.1
20260507085505 19 1 0.0 0.0 0.46 0.41 0.79 95 1010.4
20260507085003 19 1 0.0 0.0 0.25 0.41 0.56 95 1010.3
20260507084516 19 1 0.0 0.0 0.03 0.41 0.38 95 1010.4
20260507084003 19 1 0.0 0.0 0.03 0.41 0.38 95 1010.2
20260507083502 19 1 0.0 0.0 0.03 0.41 0.38 95 1010.2
20260507083003 19 1 0.0 0.0 0.03 0.41 0.38 95 1010.2
20260507082502 19 1 0.0 0.0 0.03 0.41 0.38 95 1010.2
20260507082004 19 1 0.0 0.0 0.03 0.41 0.38 94 1010.3
20260507081503 19 266 0.0 0.0 0.03 0.41 0.38 94 1010.5
20260507081006 19 266 0.0 0.0 0.03 0.41 0.38 94 1010.4
20260507080501 19 266 0.0 0.0 0.00 0.41 0.36 94 1010.5
20260507080001 19 266 0.0 0.0 0.00 0.41 0.36 94 1010.5
20260507075800 19 266 0.0 0.0 0.00 0.41 0.36 94 1010.5
20260507075301 19 266 0.0 1.6 0.00 0.41 0.36 94 1010.3
20260507074502 19 266 0.0 3.2 0.00 0.41 0.36 94 1010.2
20260507074257 19 168 0.0 3.2 0.00 0.41 0.36 94 1010.1
20260507073502 19 59 0.0 0.0 0.03 0.41 0.36 94 1010.1
20260507073001 19 188 0.0 3.2 0.03 0.41 0.36 94 1010.3
20260507072501 19 188 0.0 3.2 0.03 0.41 0.36 94 1010.4
20260507072258 19 247 0.0 0.0 0.05 0.41 0.36 94 1010.5
20260507071753 19 247 0.0 0.0 0.05 0.41 0.36 94 1010.3
20260507071001 19 247 0.0 0.0 0.05 0.41 0.36 94 1010.2
20260507070504 19 272 0.0 0.0 0.08 0.41 0.36 94 1010.2
20260507070001 19 272 0.0 0.0 0.08 0.33 0.36 94 1010.2
20260507065502 19 272 0.0 0.0 0.08 0.33 0.36 94 1010.1
20260507065002 19 272 0.0 0.0 0.08 0.33 0.36 94 1009.9
20260507064801 19 262 0.0 3.2 0.08 0.33 0.36 94 1009.9
20260507064259 19 131 0.0 3.2 0.10 0.33 0.33 94 1009.8
20260507063758 19 133 0.0 1.6 0.08 0.33 0.33 94 1010.3
20260507062956 19 351 0.0 1.6 0.10 0.33 0.33 94 1010.5
20260507062455 20 333 0.0 1.6 0.10 0.33 0.33 94 1010.6
20260507061955 20 331 0.0 1.6 0.10 0.33 0.30 93 1010.9
20260507061447 20 331 0.0 1.6 0.10 0.33 0.30 93 1011.0
20260507060947 20 331 0.0 1.6 0.13 0.33 0.30 93 1010.9
20260507060556 20 166 1.6 4.8 0.13 0.20 0.28 93 1011.0
20260507060535 20 0 0.0 3.2 0.13 0.33 0.28 93 1011.1
20260507060423 20 59 0.0 3.2 0.13 0.20 0.28 93 1011.3
20260507060318 20 23 1.6 3.2 0.13 0.20 0.28 93 1010.9
20260507060148 20 235 0.0 3.2 0.13 0.20 0.28 93 1011.0
20260507054443 20 166 1.6 4.8 0.13 0.20 0.28 93 1011.0
20260507053941 20 171 1.6 4.8 0.13 0.20 0.25 93 1011.0
20260507053434 20 306 1.6 4.8 0.13 0.20 0.25 93 1011.4
20260507052930 20 248 0.0 4.8 0.10 0.20 0.23 93 1011.8
20260507052430 20 281 0.0 3.2 0.13 0.20 0.23 93 1011.8
20260507051931 20 230 0.0 6.4 0.20 0.20 0.20 93 1011.9
20260507051428 20 197 1.6 6.4 0.20 0.20 0.20 93 1011.9
20260507050929 20 8 0.0 3.2 0.18 0.20 0.15 93 1012.1
20260507050427 20 319 0.0 3.2 0.15 0.20 0.15 93 1012.0
20260507050222 20 319 0.0 3.2 0.15 0.05 0.15 93 1011.9
20260507045726 20 296 0.0 3.2 0.15 0.05 0.15 93 1011.7
20260507044923 20 282 0.0 3.2 0.15 0.05 0.15 93 1011.6
20260507044419 20 231 0.0 3.2 0.15 0.05 0.15 93 1011.8
20260507043917 20 140 0.0 3.2 0.13 0.05 0.13 92 1011.8
20260507043416 20 213 0.0 0.0 0.13 0.05 0.13 92 1012.1
20260507042916 21 213 0.0 0.0 0.13 0.05 0.13 91 1012.3
20260507042416 21 313 0.0 0.0 0.10 0.05 0.08 90 1012.1
20260507042011 21 319 0.0 3.2 0.00 0.05 0.00 89 1012.3
20260507041949 21 312 0.0 0.0 0.00 0.05 0.00 89 1012.5
20260507040915 21 319 0.0 3.2 0.00 0.05 0.00 89 1012.1
20260507040416 21 344 1.6 3.2 0.00 0.05 0.00 89 1011.8
20260507035919 21 306 1.6 3.2 0.00 0.05 0.05 89 1011.6
20260507035416 21 275 1.6 3.2 0.00 0.05 0.05 89 1011.4
20260507034916 21 255 0.0 3.2 0.00 0.05 0.05 89 1011.4
20260507034414 21 255 0.0 3.2 0.00 0.05 0.05 89 1011.1
20260507033916 21 274 0.0 3.2 0.00 0.05 0.05 89 1011.2
20260507033712 21 193 1.6 3.2 0.00 0.05 0.05 89 1011.2
20260507032915 21 55 0.0 3.2 0.00 0.05 0.05 89 1011.6
20260507032724 21 55 0.0 3.2 0.00 0.05 0.05 89 1011.9
20260507031920 21 261 0.0 3.2 0.03 0.05 0.05 89 1012.5
20260507031417 21 262 0.0 3.2 0.03 0.05 0.05 90 1012.2
20260507030916 21 54 0.0 3.2 0.03 0.05 0.05 90 1012.2
20260507030418 21 258 0.0 3.2 0.03 0.05 0.05 91 1012.2
20260507030239 21 258 0.0 3.2 0.05 0.03 0.05 91 1011.9
20260507025429 21 258 0.0 1.6 0.05 0.03 0.05 91 1011.5
20260507025213 21 276 0.0 3.2 0.05 0.03 0.05 91 1011.6
20260507024418 21 276 0.0 3.2 0.05 0.03 0.05 91 1012.0
20260507023917 21 276 0.0 0.0 0.05 0.03 0.05 90 1011.9
20260507023417 21 276 0.0 0.0 0.05 0.03 0.05 89 1011.8
20260507023212 21 276 0.0 0.0 0.05 0.03 0.05 89 1011.6
20260507022416 21 276 0.0 0.0 0.05 0.03 0.05 88 1011.6
20260507021917 21 276 0.0 0.0 0.03 0.03 0.03 87 1011.9
20260507021710 22 276 0.0 0.0 0.03 0.03 0.03 86 1012.0
20260507021210 22 276 0.0 3.2 0.03 0.03 0.03 85 1012.0
20260507020415 22 276 0.0 3.2 0.03 0.03 0.03 84 1011.7
20260507015916 22 276 0.0 3.2 0.00 0.00 0.00 84 1011.6
20260507015415 22 276 0.0 3.2 0.00 0.00 0.00 83 1012.0
20260507014916 22 276 0.0 3.2 0.00 0.00 0.00 82 1012.1
20260507014416 22 276 0.0 3.2 0.00 0.00 0.00 80 1011.9
20260507013915 23 278 0.0 3.2 0.00 0.00 0.00 79 1012.0
20260507013415 23 238 1.6 3.2 0.00 0.00 0.00 75 1012.0
20260507012916 24 259 0.0 3.2 0.00 0.00 0.00 72 1012.0
20260507012416 24 190 0.0 3.2 0.00 0.00 0.00 72 1011.9
20260507011915 24 275 0.0 1.6 0.00 0.00 0.00 71 1011.8
20260507011514 25 28 0.0 4.8 0.00 0.00 0.00 70 1011.6
20260507011452 25 344 0.0 3.2 0.00 0.00 0.00 71 1011.6
20260507010709 25 283 3.2 4.8 0.00 0.00 0.00 70 1011.4
20260507010033 25 334 0.0 3.2 0.00 0.00 0.00 70 1011.8
20260507010001 25 317 0.0 3.2 0.00 0.00 0.00 70 1011.7
20260507004902 25 63 1.6 4.8 0.00 0.00 0.00 70 1011.7
20260507004402 25 224 0.0 4.8 0.00 0.00 0.00 69 1011.8
20260507003901 25 114 1.6 4.8 0.00 0.00 0.00 69 1011.8
20260507003401 25 155 1.6 3.2 0.00 0.00 0.00 70 1011.8
20260507002902 25 258 1.6 3.2 0.00 0.00 0.00 70 1011.7
20260507002401 25 237 0.0 3.2 0.00 0.00 0.00 70 1011.6
20260507002157 25 231 0.0 3.2 0.00 0.00 0.00 71 1011.4
20260507001524 25 54 0.0 4.8 0.00 0.00 0.00 70 1011.6
20260507001458 25 59 0.0 4.8 0.00 0.00 0.00 70 1011.8
20260507000406 25 185 1.6 4.8 0.00 0.00 0.00 70 1011.5
20260506235902 25 266 1.6 4.8 0.00 0.00 0.00 70 1011.2
20260506235359 25 271 1.6 3.2 0.00 0.00 0.00 69 1011.1
20260506234853 25 298 0.0 3.2 0.00 0.00 0.00 68 1011.1
20260506234352 25 336 0.0 3.2 0.00 0.00 0.00 68 1011.0
20260506233853 25 341 0.0 3.2 0.00 0.00 0.00 67 1010.8
20260506233351 26 329 0.0 1.6 0.00 0.00 0.00 66 1010.8
20260506232850 26 329 0.0 3.2 0.00 0.00 0.00 66 1010.8
20260506232345 26 343 0.0 3.2 0.00 0.00 0.00 65 1011.0
20260506231847 26 329 0.0 8.0 0.00 0.00 0.00 65 1011.0
20260506231346 26 329 1.6 8.0 0.00 0.00 0.00 65 1010.9
20260506231133 26 350 1.6 4.8 0.00 0.00 0.00 66 1011.0
20260506230342 26 288 0.0 4.8 0.00 0.00 0.00 66 1010.9
20260506230157 26 245 0.0 3.2 0.00 0.00 0.00 66 1011.3
20260506225336 26 258 0.0 4.8 0.00 0.00 0.00 65 1011.3
20260506224836 26 258 1.6 4.8 0.00 0.00 0.00 64 1011.3
20260506224337 26 254 1.6 4.8 0.00 0.00 0.00 64 1011.3
20260506223936 26 130 1.6 3.2 0.00 0.00 0.00 63 1011.3
20260506223913 26 259 0.0 4.8 0.00 0.00 0.00 64 1011.3
20260506222833 27 316 1.6 4.8 0.00 0.00 0.00 63 1011.2
20260506222331 27 266 1.6 6.4 0.00 0.00 0.00 63 1011.2
20260506221830 27 13 3.2 6.4 0.00 0.00 0.00 62 1011.0
20260506221633 27 72 1.6 6.4 0.00 0.00 0.00 63 1011.0
20260506220829 27 299 1.6 6.4 0.00 0.00 0.00 61 1011.1
20260506220329 27 235 0.0 3.2 0.00 0.00 0.00 63 1011.0
20260506215829 27 237 1.6 4.8 0.00 0.00 0.00 61 1011.1
20260506215639 27 251 0.0 4.8 0.00 0.00 0.00 61 1011.0
20260506214826 27 274 1.6 6.4 0.00 0.00 0.00 61 1011.1
20260506214326 27 78 3.2 6.4 0.00 0.00 0.00 61 1011.1
20260506213826 27 109 0.0 4.8 0.00 0.00 0.00 62 1011.1
20260506213617 27 118 1.6 4.8 0.00 0.00 0.00 61 1011.2
20260506212820 27 190 0.0 4.8 0.00 0.00 0.00 62 1011.1
20260506212318 27 173 1.6 4.8 0.00 0.00 0.00 61 1011.3
20260506212121 28 319 1.6 3.2 0.00 0.00 0.00 60 1011.1
20260506211609 28 200 1.6 6.4 0.00 0.00 0.00 60 1011.0
20260506211112 28 305 1.6 6.4 0.00 0.00 0.00 59 1011.2
20260506210610 28 186 1.6 6.4 0.00 0.00 0.00 58 1011.4
20260506205801 28 116 1.6 6.4 0.00 0.00 0.00 58 1011.5
20260506205305 28 128 1.6 4.8 0.00 0.00 0.00 58 1011.5
20260506204802 28 274 1.6 4.8 0.00 0.00 0.00 56 1011.8
20260506204302 28 254 0.0 4.8 0.00 0.00 0.00 56 1011.9
20260506203802 28 192 1.6 4.8 0.00 0.00 0.00 57 1012.0
20260506203302 28 313 1.6 6.4 0.00 0.00 0.00 57 1012.0